Regional Weather Roundup
Issued by NWS

Home | Current Version | Previous Version | Text Only | Print | Product List | Glossary Off
Versions: 1 2 3 4 5 6 7 8 9 10 11 12 13 14 15 16 17 18 19 20 21 22 23 24 25 26 27 28 29 30 31 32 33 34 35 36 37 38 39 40 41 42 43 44 45 46 47 48 49 50

000
ASUS43 KDTX 281610
RWRMI
MICHIGAN HOURLY REGIONAL WEATHER ROUNDUP
NATIONAL WEATHER SERVICE DETROIT/PONTIAC MI
1200 PM EDT TUE JUL 28 2015

NOTE: "FAIR" INDICATES FEW OR NO CLOUDS BELOW 12,000 FEET WITH NO
SIGNIFICANT WEATHER AND/OR OBSTRUCTION TO VISIBILITY.

MIZ047>049-052>055-059>063-066>070-074>076-081>083-281700-
SOUTHEAST LOWER MICHIGAN

CITY           SKY/WX    TMP DP  RH WIND       PRES   REMARKS
ADRIAN         SUNNY     84  67  56 SE7       30.05R
ALMA           SUNNY     84  64  49 SE5       30.05R
ANN ARBOR      SUNNY     84  64  50 SE9       30.05R
BAD AXE        SUNNY     85  62  44 CALM      30.04F
CARO           SUNNY     86  64  47 S3        30.03F
DETROIT CITY   SUNNY     85  64  49 SE6       30.04S
DETROIT        SUNNY     85  64  49 E6        30.04S
FLINT          SUNNY     87  63  44 S7        30.04F
GROSSE ILE     SUNNY     84  66  54 S7        30.03S
HILLSDALE      SUNNY     83  67  59 E7        30.06S
HOWELL         SUNNY     86  59  40 SE9       30.05S

CITY           SKY/WX    TMP DP  RH WIND       PRES   REMARKS
JACKSON        SUNNY     85  62  46 SE10      30.06R
LAMBERTVILLE   SUNNY     84  66  53 NE3       30.04R
LANSING        SUNNY     85  63  47 S12       30.05S
LAPEER         FAIR      86  59  39 SW3       30.05S
MASON          SUNNY     82  63  51 S7        30.06R
MONROE         SUNNY     84  64  49 E3        30.03S
MT. CLEMENS    SUNNY     84  63  49 E7        30.04F
PONTIAC        MOSUNNY   86  62  44 S7        30.05S
PORT HOPE        N/A     80  71  74 N3        30.03S
PORT HURON     SUNNY     84  61  45 CALM      30.04S
TRI CITIES     SUNNY     87  66  49 S6        30.04F
MIDLAND        FAIR      86  63  45 SW6       30.04R
TROY           SUNNY     88  59  38 SE6       30.05F
SAGINAW HB     SUNNY     86  64  48 SW5       30.04R
$$
MIZ043>046-050>051-056>058-064>065-071>073-077>080-281700-
SOUTHWEST LOWER MICHIGAN

CITY           SKY/WX    TMP DP  RH WIND       PRES   REMARKS
BATTLE CREEK   SUNNY     84  64  50 S5        30.05S
BENTON HARBOR  SUNNY     85  66  53 S9        30.02R
BIG RAPIDS     SUNNY     84  58  41 SW5       30.04S
COLDWATER      SUNNY     81  66  60 S5        30.04S
FREMONT        FAIR      85  57  38 S9        30.03S
HOLLAND        SUNNY     85  61  44 SE8       30.03S
GRAND RAPIDS   MOSUNNY   85  61  44 S13       30.05R
IONIA          FAIR      85  61  45 S8        30.04S
KALAMAZOO      SUNNY     85  64  49 CALM      30.05R
LUDINGTON      MOSUNNY   85  61  44 S9        30.03S
MARSHALL       SUNNY     84  65  53 E7        30.05S
MOUNT PLEASANT SUNNY     87  60  41 S7        30.04R
MUSKEGON       PTSUNNY   86  59  39 S10       30.03R
SOUTH HAVEN    SUNNY     83  63  49 S5        30.02S
$$
MIZ016>042-281700-
NORTHERN LOWER MICHIGAN

CITY           SKY/WX    TMP DP  RH WIND       PRES   REMARKS
ALPENA         SUNNY     89  62  40 SW7       30.04S
BEAVER ISLAND  PTSUNNY   86  57  36 S5        30.02S
BELLAIRE       SUNNY     89  53  29 S5        30.01S
CADILLAC       SUNNY     87  65  47 S6        30.05S
CHARLEVOIX     MOSUNNY   85  64  49 N6        30.05R
FRANKFORT      MOSUNNY   83  64  50 SW6       30.03R
GAYLORD        SUNNY     87  54  32 S7        30.06R
GRAYLING       SUNNY     89  59  36 SE8       30.05S
HARBOR SPRINGS SUNNY     88  64  43 CALM      30.02R
HOUGHTON LAKE  SUNNY     86  66  51 W7        30.05R
MANISTEE       SUNNY     82  64  54 S7        30.03S
OSCODA         SUNNY     88  58  35 E8        30.04R
PELLSTON       SUNNY     88  62  41 VRB6      30.02F
ROGERS CITY    SUNNY     84  65  52 NE5       30.04F
TRAVERSE CITY  PTSUNNY   91  62  37 VRB6      30.00R HX  91
$$
MIZ007>008-015-281700-
EASTERN UPPER MICHIGAN

CITY           SKY/WX    TMP DP  RH WIND       PRES   REMARKS
KINROSS        SUNNY     86  55  35 S7        30.02F
MACKINAC ISLAN SUNNY     83  62  48 NE3       30.02F
MUNISING         N/A     84  63  49 SW10G20   29.98R
$$
MIZ004>006-011>014-085-281700-
CENTRAL UPPER MICHIGAN

CITY           SKY/WX    TMP DP  RH WIND       PRES   REMARKS
MANISTIQUE     PTSUNNY   77  59  53 S6        30.02S
ESCANABA       PTSUNNY   79  63  57 S7        30.00S
MENOMINEE      PTSUNNY   81  64  57 SW10      30.00R
SAWYER-GWINN   SUNNY     81  61  50 SW15      30.01S
$$
MIZ001>003-009>011-084-281700-
WESTERN UPPER MICHIGAN

CITY           SKY/WX    TMP DP  RH WIND       PRES   REMARKS
IRON MOUNTAIN  CLOUDY    80  63  55 S10       30.00S
HOUGHTON       CLOUDY    78  63  59 S10       29.94F
COPPER HARBOR    N/A     78  64  61 SW7       29.93S
IRONWOOD       CLOUDY    75  64  69 S16G26    29.84F
$$

ABBREVIATIONS USED IN REMARKS
   TC - TEMPERATURE IN CELSIUS
  WCI - WIND CHILL INDEX
   HX - HEAT INDEX
  VSB - VISIBILITY



USA.gov is the U.S. government's official web portal to all federal, state and local government web resources and services.